User: anonymous   Login
Location: Betra
(48.4113°N, 8.6634°E)
Time: 03:28:02
(UTC+00:00)
Language:

Cosmos 1242 Rocket - Orbit

View from above orbital plane
View from above orbital plane
View from above satellite
View from above satellite

Ground track
Ground track

The orbit data is extracted from the following two-line orbital elements,

1 12155U 81008B   24200.53133041  .00213389  15325-4  71775-3 0  9995
2 12155  81.1380 191.9218 0006733  92.8996 267.3043 15.89932222358475
Epoch (UTC): 18 July 2024 12:45:06
Eccentricity: 0.0006733
inclination: 81.1380°
perigee height: 298 km
apogee height: 307 km
right ascension of ascending node: 191.9218°
argument of perigee: 92.8996°
revolutions per day: 15.89932222
mean anomaly at epoch: 267.3043°
orbit number at epoch: 35847

The dashed part of the orbit path shows where the satellite is in the earth's shadow,  

DLR